Rechercher aéroport 
image banner adimage banner adimage banner ad
image banner ad

CL76 - U S Naval Hospital San Diego

Situé à San Diego, United States

ICAO - CL76, IATA -

Données fournies par Airmate  

Information générale

Coordonnées: N32°43'30" W117°8'39"
Élévation : 200 feet MSL.
Variation magnétique : 13° East
Voir autres Aéroports à California

Données opérationnelles

Special qualification required
Heure actuelle UTC:
Heure actuelle locale:
Météo à : KSAN - San Diego Intl ( 4 km )
METAR: KSAN 240751Z 18003KT 10SM FEW015 OVC031 18/13 A2992 RMK AO2 SLP132 T01830128 402060161 $
TAF: KSAN 240520Z 2406/2512 19005KT P6SM SCT026 BKN035 TEMPO 2408/2412 BKN026 FM241900 26009KT P6SM SCT035 SCT250 FM250200 VRB04KT P6SM SCT025 FM250600 VRB04KT P6SM BKN025
Voir NOTAMs / SUP AIP / TFR affectant cet aéroport [VIEW]
Fréquences de communication: [VIEW]

Pistes:

Coordonnées de l'aéroport

Adresse: San Diego United States

Vue satellite de CL76